FENGYUN 2F

Last updated on Wed Nov 27 2024 00:02:19 GMT+0000 (Coordinated Universal Time)

1 38049U 12002A 24330.81948126 -.00000103 00000+0 00000+0 0 9993 2 38049 6.1437 72.3741 0002500 161.7369 230.0395 0.99136598 47172
UTC large
Height (km)
Speed (km/s)
/
Latitude / Longitude
Inclination (degrees)
Orbital Period (minutes)
Azimuth
Elevation
Range (km)
Doppler Factor

Next 0 passes for location: London (51.5072 / 0.1276)

Sorry there are no passes over London.
FENGYUN 2F